{"data":{"norad_id":28521,"intl_designator":"2005-002A","name":"COSMOS 2414","alt_names":[],"object_type":"PAYLOAD","status":"ACTIVE","operator":null,"country":"CIS","launch_date":"2005-01-20","launch_site_code":"PLMSC","launch_vehicle":null,"mission":null,"orbit_class":"UNKNOWN","rcs_meters":1.8312,"size_class":null,"mass_kg":null,"dimensions":null,"purposes":["nav"],"wikipedia_slug":null,"has_3d_model":false,"image_url":null,"decayed_at":null,"tle_current":{"epoch":"2026-09-19T13:02:29.522400Z","epoch_age_seconds":97174,"freshness":"FRESH","line1":"1 28521U 05002A   26262.54339725  .00000046  00000+0  25349-4 0  9997","line2":"2 28521  82.9529 332.2793 0041323  61.5028 299.0287 13.87934379 96904","mean_motion":13.87934379,"eccentricity":0.0041323,"inclination_deg":82.9529,"raan_deg":332.2793,"arg_perigee_deg":61.5028,"mean_anomaly_deg":299.0287,"bstar":2.5349e-5,"rev_number":9690,"period_min":103.75130278403,"perigee_km":905.65495143526,"apogee_km":966.10236524518,"semimajor_km":7314.0156583402,"source":"CELESTRAK","updated_at":"2026-09-20T09:00:46.995815Z"}}}